�N����,����,�~����,�C��,���x,�C��,����,���ϕ���,�ő�u�ԕ���,�ő厞����,���˗�,�I�_���x,�n�����x,�ő啗���N��,DTYPE
"21/01/11","00:10",0.0,0.1,69.5,1016.4,308.9,2.3,2.9,311.5,0.00,-4.8,3.6,"00:00:48",1
"21/01/11","00:20",0.0,0.1,70.2,1016.8,293.1,1.8,2.7,303.2,0.00,-4.6,3.3,"00:10:40",1
"21/01/11","00:30",0.0,-0.1,70.6,1016.8,306.4,1.6,2.8,338.5,0.00,-4.8,3.4,"00:27:52",1
"21/01/11","00:40",0.0,-0.4,71.6,1016.8,328.6,1.8,2.9,298.5,0.00,-4.9,3.2,"00:39:36",1
"21/01/11","00:50",0.0,-0.2,72.2,1016.8,327.0,2.1,3.2,337.2,0.00,-4.6,3.3,"00:49:28",1
"21/01/11","01:00",0.0,0.0,72.4,1017.1,329.0,2.7,4.8,324.0,0.00,-4.3,3.3,"00:56:48",1
"21/01/11","01:10",0.0,0.1,72.6,1016.8,310.8,2.6,4.0,331.0,0.00,-4.2,3.2,"01:08:32",1
"21/01/11","01:20",0.0,0.4,72.6,1017.1,313.3,3.1,5.7,323.7,0.00,-3.9,3.2,"01:11:40",1
"21/01/11","01:30",0.0,0.4,72.5,1017.3,315.2,3.0,4.5,329.0,0.00,-3.9,3.0,"01:20:56",1
"21/01/11","01:40",0.0,0.3,72.3,1017.1,319.8,2.3,5.4,330.4,0.00,-4.1,3.2,"01:33:12",1
"21/01/11","01:50",0.0,-0.2,72.4,1017.1,175.4,0.8,2.2,331.5,0.00,-4.5,3.1,"01:40:40",1
"21/01/11","02:00",0.0,-0.8,73.2,1017.5,331.8,0.6,1.4,348.4,0.00,-5.0,3.1,"01:56:56",1
"21/01/11","02:10",0.0,-1.1,73.9,1017.1,318.5,1.1,2.6,336.8,0.00,-5.1,3.1,"02:05:28",1
"21/01/11","02:20",0.0,-1.6,74.6,1016.8,311.5,1.2,2.2,312.6,0.00,-5.5,2.9,"02:10:24",1
"21/01/11","02:30",0.0,-1.8,75.3,1017.1,317.5,1.5,2.4,325.3,0.00,-5.5,2.9,"02:27:44",1
"21/01/11","02:40",0.0,-1.9,76.0,1016.8,313.7,1.1,2.2,343.3,0.00,-5.5,2.8,"02:34:16",1
"21/01/11","02:50",0.0,-2.1,76.6,1016.8,288.5,1.0,1.4,259.9,0.00,-5.6,2.8,"02:47:44",1
"21/01/11","03:00",0.0,-2.2,77.5,1016.6,329.1,1.8,3.1,348.1,0.00,-5.6,2.7,"02:54:24",1
"21/01/11","03:10",0.0,-2.3,78.3,1016.4,315.6,2.3,2.9,319.3,0.00,-5.5,2.7,"03:06:00",1
"21/01/11","03:20",0.0,-2.4,79.3,1016.4,326.0,2.0,2.6,324.7,0.00,-5.4,2.8,"03:10:16",1
"21/01/11","03:30",0.0,-2.7,79.7,1016.4,305.0,1.6,2.5,321.5,0.00,-5.7,2.5,"03:20:32",1
"21/01/11","03:40",0.0,-3.0,80.3,1016.1,307.1,2.0,3.1,324.4,0.00,-5.9,2.6,"03:30:56",1
"21/01/11","03:50",0.0,-3.2,81.1,1016.1,306.7,2.0,3.2,327.3,0.00,-5.9,2.6,"03:49:36",1
"21/01/11","04:00",0.0,-2.8,81.8,1015.9,323.1,1.8,3.1,343.1,0.00,-5.4,2.5,"03:53:44",1
"21/01/11","04:10",0.0,-3.1,82.3,1016.1,302.5,1.7,2.2,316.6,0.00,-5.6,2.7,"04:06:56",1
"21/01/11","04:20",0.0,-3.1,83.1,1015.9,321.6,2.7,3.3,311.9,0.00,-5.5,2.6,"04:19:02",1
"21/01/11","04:30",0.0,-3.3,83.7,1016.1,326.4,1.2,3.1,321.2,0.00,-5.6,2.4,"04:20:08",1
"21/01/11","04:40",0.0,-3.4,84.3,1016.1,307.6,2.1,2.8,321.9,0.00,-5.6,2.2,"04:36:08",1
"21/01/11","04:50",0.0,-3.5,84.8,1015.9,299.2,1.6,3.2,328.3,0.00,-5.6,2.2,"04:43:42",1
"21/01/11","05:00",0.0,-3.7,85.5,1015.4,299.3,2.2,2.8,313.3,0.00,-5.7,2.3,"04:52:34",1
"21/01/11","05:10",0.0,-3.5,86.2,1016.1,316.1,2.5,2.9,322.8,0.00,-5.4,2.4,"05:08:44",1
"21/01/11","05:20",0.0,-3.6,86.7,1016.1,287.8,1.7,1.9,306.6,0.00,-5.5,2.2,"05:10:20",1
"21/01/11","05:30",0.0,-3.3,87.1,1016.8,306.1,2.3,2.6,321.2,0.00,-5.1,2.3,"05:27:54",1
"21/01/11","05:40",0.0,-3.2,87.6,1016.6,331.0,2.1,3.1,324.8,0.00,-4.9,2.3,"05:35:26",1
"21/01/11","05:50",0.0,-3.2,88.0,1016.8,325.4,2.5,3.2,322.6,0.00,-4.9,2.1,"05:44:40",1
"21/01/11","06:00",0.0,-3.2,88.5,1016.6,312.7,2.2,3.2,311.3,0.00,-4.8,2.2,"05:54:16",1
"21/01/11","06:10",0.0,-3.2,88.8,1016.6,301.2,1.8,2.7,309.9,0.00,-4.7,2.4,"06:00:48",1
"21/01/11","06:20",0.0,-3.0,89.1,1016.8,309.3,1.2,1.7,308.6,0.00,-4.5,2.3,"06:19:44",1
"21/01/11","06:30",0.0,-2.9,89.2,1016.8,311.2,1.8,3.2,322.5,0.00,-4.4,2.4,"06:28:32",1
"21/01/11","06:40",0.0,-3.2,89.5,1016.6,316.4,2.5,3.2,320.8,0.00,-4.6,2.1,"06:34:56",1
"21/01/11","06:50",0.0,-3.2,89.9,1017.1,318.6,2.0,3.1,316.1,0.00,-4.6,2.3,"06:47:28",1
"21/01/11","07:00",0.0,-3.2,90.1,1017.5,309.5,1.8,2.6,321.6,0.00,-4.5,2.0,"06:55:44",1
"21/01/11","07:10",0.0,-2.9,90.3,1017.8,293.4,2.0,2.5,312.0,0.00,-4.2,2.3,"07:00:16",1
"21/01/11","07:20",0.0,-2.6,90.5,1017.8,324.1,1.5,2.2,306.0,0.00,-3.9,2.3,"07:10:08",1
"21/01/11","07:30",0.0,-2.4,90.6,1018.0,315.2,1.1,2.0,319.3,0.00,-3.7,2.2,"07:26:00",1
"21/01/11","07:40",0.0,-2.5,90.8,1017.8,311.1,1.6,2.5,312.6,0.00,-3.8,2.3,"07:33:20",1
"21/01/11","07:50",0.0,-2.3,91.1,1018.0,308.9,1.5,1.8,297.9,0.00,-3.5,2.3,"07:42:24",1
"21/01/11","08:00",0.0,-1.9,91.2,1017.8,348.2,1.0,1.8,340.8,0.01,-3.1,2.1,"07:51:12",1
"21/01/11","08:10",0.0,-1.6,91.3,1018.5,329.4,1.6,2.2,338.3,0.02,-2.8,2.3,"08:09:12",1
"21/01/11","08:20",0.0,-0.4,91.1,1018.7,328.9,2.8,4.2,329.2,0.03,-1.6,2.3,"08:13:52",1
"21/01/11","08:30",0.0,-0.1,90.8,1019.4,271.5,1.3,2.8,318.9,0.05,-1.4,2.3,"08:20:08",1
"21/01/11","08:40",0.0,0.3,90.6,1019.7,236.5,1.0,2.0,273.0,0.07,-1.0,2.6,"08:39:12",1
"21/01/11","08:50",0.0,0.6,90.2,1020.1,277.8,1.0,2.4,312.1,0.08,-0.8,2.6,"08:46:24",1
"21/01/11","09:00",0.0,0.9,89.2,1020.6,190.3,0.6,1.8,214.2,0.09,-0.6,2.9,"08:59:52",1
"21/01/11","09:10",0.0,1.2,88.3,1021.3,191.5,1.5,2.6,160.6,0.09,-0.5,2.9,"09:05:24",1
"21/01/11","09:20",0.0,1.3,86.7,1021.5,227.2,1.6,3.2,236.9,0.09,-0.6,2.6,"09:17:36",1
"21/01/11","09:30",0.0,1.6,85.1,1021.5,197.0,0.8,1.9,212.6,0.07,-0.6,2.8,"09:20:16",1
"21/01/11","09:40",0.0,1.8,83.6,1021.8,276.8,1.5,3.4,320.7,0.09,-0.6,3.1,"09:39:36",1
"21/01/11","09:50",0.0,2.2,82.0,1022.3,274.4,2.0,3.7,259.6,0.10,-0.5,3.3,"09:41:28",1
"21/01/11","10:00",0.0,2.7,80.1,1022.0,315.8,1.5,3.2,329.3,0.12,-0.3,3.2,"09:51:04",1
"21/01/11","10:10",0.0,3.0,77.9,1022.7,295.5,1.8,3.2,302.9,0.13,-0.4,3.4,"10:07:12",1
"21/01/11","10:20",0.0,3.3,75.5,1023.0,293.4,2.0,3.6,286.8,0.15,-0.6,3.5,"10:19:28",1
"21/01/11","10:30",0.0,3.8,73.3,1023.0,305.9,2.1,4.2,334.7,0.16,-0.5,3.5,"10:27:16",1
"21/01/11","10:40",0.0,4.0,71.4,1022.5,297.7,2.2,3.7,317.7,0.17,-0.7,3.8,"10:38:06",1
"21/01/11","10:50",0.0,4.2,69.7,1022.5,293.9,2.2,3.4,294.8,0.19,-0.8,3.8,"10:46:50",1
"21/01/11","11:00",0.0,4.2,69.5,1022.0,176.5,1.7,2.2,165.5,0.21,-0.8,4.1,"10:52:58",1
"21/01/11","11:10",0.0,4.4,68.1,1021.8,181.1,1.1,2.5,124.2,0.19,-0.9,4.2,"11:00:56",1
"21/01/11","11:20",0.0,4.6,67.0,1021.8,125.4,1.1,1.1,124.1,0.16,-1.0,4.2,"11:14:58",1
"21/01/11","11:30",0.0,4.9,66.3,1021.8,248.3,0.7,1.3,252.4,0.19,-0.8,4.4,"11:27:22",1
"21/01/11","11:40",0.0,5.3,65.2,1021.1,246.2,0.7,1.2,239.4,0.26,-0.7,4.7,"11:30:56",1
"21/01/11","11:50",0.0,5.3,64.0,1020.6,202.7,1.3,2.2,123.2,0.22,-0.9,4.7,"11:48:20",1
"21/01/11","12:00",0.0,5.3,64.2,1020.4,164.0,1.5,2.7,165.4,0.21,-0.9,4.8,"11:57:40",1
"21/01/11","12:10",0.0,5.5,63.8,1020.4,158.3,1.3,3.5,118.2,0.25,-0.8,5.1,"12:02:34",1
"21/01/11","12:20",0.0,5.8,62.9,1019.4,178.6,1.2,3.5,114.2,0.26,-0.7,5.4,"12:10:40",1
"21/01/11","12:30",0.0,5.8,60.7,1019.4,121.9,1.3,2.9,113.2,0.27,-1.2,5.5,"12:22:10",1
"21/01/11","12:40",0.0,5.8,60.9,1019.0,105.8,1.6,2.9,128.3,0.35,-1.1,5.5,"12:31:12",1
"21/01/11","12:50",0.0,5.7,59.2,1019.0,191.7,1.3,2.2,189.7,0.21,-1.6,5.8,"12:45:34",1
"21/01/11","13:00",0.0,6.4,58.7,1019.0,126.2,1.5,3.3,117.5,0.37,-1.1,6.1,"12:50:02",1
"21/01/11","13:10",0.0,5.3,58.9,1019.0,92.3,1.7,2.9,92.4,0.08,-2.0,5.9,"13:06:24",1
"21/01/11","13:20",0.0,6.5,59.7,1019.2,304.8,1.3,2.4,326.4,0.30,-0.7,6.2,"13:18:42",1
"21/01/11","13:30",0.0,7.8,56.8,1019.2,253.7,1.2,2.6,236.6,0.37,-0.2,6.5,"13:24:04",1
"21/01/11","13:40",0.0,7.7,54.1,1019.0,198.6,1.5,3.7,203.2,0.37,-0.9,6.7,"13:34:58",1
"21/01/11","13:50",0.0,7.6,54.7,1019.2,221.8,1.8,3.6,209.8,0.34,-0.9,6.7,"13:45:04",1
"21/01/11","14:00",0.0,7.7,53.1,1018.7,237.2,1.8,4.2,243.2,0.34,-1.2,6.9,"13:52:40",1
"21/01/11","14:10",0.0,7.4,53.7,1019.2,202.7,2.0,4.7,196.0,0.26,-1.3,6.9,"14:08:00",1
"21/01/11","14:20",0.0,6.7,55.9,1019.0,191.8,2.2,5.2,198.2,0.15,-1.4,6.9,"14:11:02",1
"21/01/11","14:30",0.0,6.7,56.2,1018.5,218.8,1.0,2.6,189.6,0.12,-1.4,6.8,"14:22:24",1
"21/01/11","14:40",0.0,6.9,56.0,1018.7,209.7,1.8,3.4,207.1,0.17,-1.2,6.9,"14:39:16",1
"21/01/11","14:50",0.0,7.1,54.9,1018.7,219.5,1.3,2.8,235.4,0.15,-1.3,6.9,"14:41:30",1
"21/01/11","15:00",0.0,6.9,55.2,1019.2,305.3,1.5,3.9,339.3,0.10,-1.4,6.8,"14:57:54",1
"21/01/11","15:10",0.0,6.9,55.2,1019.0,280.4,2.0,3.9,313.3,0.12,-1.4,6.8,"15:04:50",1
"21/01/11","15:20",0.0,6.6,55.5,1018.5,279.7,2.0,3.4,323.7,0.08,-1.6,6.9,"15:17:40",1
"21/01/11","15:30",0.0,6.5,55.9,1018.2,301.6,2.3,4.3,329.7,0.08,-1.6,7.0,"15:21:16",1
"21/01/11","15:40",0.0,6.5,55.8,1018.2,314.3,2.7,4.1,326.8,0.09,-1.6,6.8,"15:31:32",1
"21/01/11","15:50",0.0,6.7,55.6,1018.0,309.2,2.1,3.6,330.5,0.08,-1.5,6.7,"15:45:20",1
"21/01/11","16:00",0.0,6.5,55.0,1017.8,275.1,1.1,2.7,303.5,0.05,-1.8,6.9,"15:50:56",1
"21/01/11","16:10",0.0,6.2,56.4,1018.2,224.4,1.0,2.1,239.2,0.03,-1.8,6.8,"16:03:52",1
"21/01/11","16:20",0.0,6.1,56.8,1017.8,210.5,1.2,2.1,247.3,0.03,-1.8,6.6,"16:10:32",1
"21/01/11","16:30",0.0,6.1,57.0,1017.8,182.7,1.2,3.3,126.5,0.03,-1.7,6.6,"16:22:24",1
"21/01/11","16:40",0.0,5.9,57.4,1017.3,212.2,1.2,2.7,212.1,0.02,-1.8,6.5,"16:33:06",1
"21/01/11","16:50",0.0,5.6,58.1,1017.3,164.6,1.3,3.4,155.4,0.01,-1.9,6.6,"16:40:24",1
"21/01/11","17:00",0.0,5.2,58.9,1017.1,162.1,1.2,1.9,139.4,0.00,-2.1,6.5,"16:51:36",1
"21/01/11","17:10",0.0,5.0,59.9,1017.5,170.7,1.6,3.3,151.1,0.00,-2.1,6.4,"17:02:08",1
"21/01/11","17:20",0.0,4.9,60.4,1017.3,198.4,1.7,3.2,208.8,0.00,-2.1,6.2,"17:18:18",1
"21/01/11","17:30",0.0,4.5,61.4,1016.6,206.8,0.7,1.7,215.3,0.00,-2.2,6.0,"17:20:08",1
"21/01/11","17:40",0.0,4.1,62.5,1016.4,168.2,0.6,1.7,158.5,0.00,-2.4,5.9,"17:35:52",1
"21/01/11","17:50",0.0,3.6,63.9,1015.9,311.4,1.3,2.0,333.5,0.00,-2.5,6.0,"17:45:04",1
"21/01/11","18:00",0.0,3.4,65.5,1015.9,324.3,1.8,2.9,326.6,0.00,-2.4,5.7,"17:58:20",1
"21/01/11","18:10",0.0,2.6,67.7,1016.1,294.7,2.0,2.8,320.1,0.00,-2.7,5.6,"18:00:16",1
"21/01/11","18:20",0.0,2.3,69.4,1016.6,299.3,2.0,2.4,307.7,0.00,-2.7,5.4,"18:16:48",1
"21/01/11","18:30",0.0,2.1,71.0,1016.6,301.4,2.5,3.6,311.4,0.00,-2.6,5.5,"18:26:00",1
"21/01/11","18:40",0.0,2.2,71.9,1016.6,323.5,2.1,2.5,322.7,0.00,-2.3,5.3,"18:32:08",1
"21/01/11","18:50",0.0,2.0,72.7,1017.3,322.9,2.5,3.2,315.5,0.00,-2.3,5.3,"18:48:00",1
"21/01/11","19:00",0.0,1.9,73.6,1016.4,320.7,1.5,2.8,329.7,0.00,-2.3,5.2,"18:50:32",1
"21/01/11","19:10",0.0,1.8,74.2,1016.4,309.7,2.1,2.7,325.3,0.00,-2.3,5.2,"19:08:24",1
"21/01/11","19:20",0.0,1.9,74.6,1016.1,292.4,2.3,3.3,303.8,0.00,-2.1,5.0,"19:17:12",1
"21/01/11","19:30",0.0,1.8,74.8,1016.1,304.5,2.5,3.5,310.3,0.00,-2.1,5.1,"19:24:40",1
"21/01/11","19:40",0.0,1.6,75.1,1016.4,297.6,1.7,2.2,316.6,0.00,-2.3,4.7,"19:30:56",1
"21/01/11","19:50",0.0,1.3,75.6,1016.1,316.0,2.7,3.6,324.9,0.00,-2.5,4.8,"19:42:56",1
"21/01/11","20:00",0.0,1.2,76.3,1015.9,326.7,2.1,3.1,324.3,0.00,-2.5,4.9,"19:59:44",1
"21/01/11","20:10",0.0,0.7,76.8,1015.9,306.1,2.0,3.2,319.5,0.00,-2.9,4.9,"20:00:16",1
"21/01/11","20:20",0.0,0.8,77.5,1015.6,288.0,1.7,2.1,300.9,0.00,-2.6,4.7,"20:16:24",1
"21/01/11","20:30",0.0,1.1,78.0,1016.1,291.9,1.8,2.7,305.1,0.00,-2.3,4.7,"20:27:44",1
"21/01/11","20:40",0.0,1.1,78.3,1015.9,323.6,1.8,2.5,312.9,0.00,-2.2,4.7,"20:30:16",1
"21/01/11","20:50",0.0,0.9,78.8,1015.9,301.9,2.0,2.8,322.2,0.00,-2.3,4.7,"20:49:12",1
"21/01/11","21:00",0.0,0.7,79.2,1015.9,297.0,1.8,2.6,313.3,0.00,-2.4,4.7,"20:50:16",1
"21/01/11","21:10",0.0,0.9,79.6,1015.9,304.0,2.0,2.6,318.9,0.00,-2.2,4.7,"21:02:08",1
"21/01/11","21:20",0.0,1.1,79.8,1015.9,309.9,2.2,3.1,325.1,0.00,-2.0,4.8,"21:19:52",1
"21/01/11","21:30",0.0,1.1,79.9,1015.4,311.8,2.1,3.1,325.6,0.00,-1.9,4.5,"21:20:48",1
"21/01/11","21:40",0.0,0.9,80.1,1015.4,306.5,1.8,2.1,307.3,0.00,-2.1,4.5,"21:34:48",1
"21/01/11","21:50",0.0,0.8,80.4,1015.4,296.4,1.3,2.0,315.7,0.00,-2.1,4.4,"21:40:24",1
"21/01/11","22:00",0.0,0.8,80.6,1015.6,311.2,2.1,2.7,322.4,0.00,-2.1,4.4,"21:53:04",1
"21/01/11","22:10",0.0,0.8,80.9,1015.6,310.9,1.8,2.2,321.8,0.00,-2.1,4.4,"22:09:12",1
"21/01/11","22:20",0.0,0.8,81.1,1015.2,312.6,2.0,2.7,316.5,0.00,-2.0,4.5,"22:14:40",1
"21/01/11","22:30",0.0,0.6,81.4,1015.4,310.8,1.8,2.5,324.0,0.00,-2.2,4.6,"22:22:08",1
"21/01/11","22:40",0.0,0.6,81.9,1015.6,303.9,2.0,2.4,308.9,0.00,-2.1,4.4,"22:36:24",1
"21/01/11","22:50",0.0,0.4,82.3,1015.6,309.5,2.0,2.1,314.8,0.00,-2.2,4.4,"22:42:00",1
"21/01/11","23:00",0.0,0.6,83.0,1014.9,323.1,2.1,2.7,338.8,0.00,-1.9,4.3,"22:59:20",1
"21/01/11","23:10",0.0,0.6,83.5,1015.6,318.2,2.2,2.7,333.9,0.00,-1.8,4.2,"23:02:40",1
"21/01/11","23:20",0.0,0.4,84.0,1014.7,306.4,1.8,2.1,315.3,0.00,-1.9,4.3,"23:10:16",1
"21/01/11","23:30",0.0,0.5,84.6,1014.9,312.6,2.2,2.6,320.7,0.00,-1.7,4.2,"23:25:36",1
"21/01/11","23:40",0.0,0.5,85.0,1014.7,306.6,2.0,2.5,316.9,0.00,-1.7,4.4,"23:33:04",1
"21/01/11","23:50",0.0,0.6,85.3,1014.2,295.2,1.8,2.5,309.2,0.00,-1.5,4.3,"23:40:02",1
"21/01/11","24:00",0.0,0.8,85.6,1014.0,297.2,2.1,2.5,316.9,0.00,-1.3,4.2,"23:51:20",1
